Osceola Municipal, IA

8:09 AM CDT on July 26, 2017 (GMT -0500)
Osceola Municipal

Weather History for KI75 - November, 2013

Change the Weather History Date:

Friday, November 8, 2013

  Actual Average (KCNC) Record (KCNC)
Temperature  
Mean Temperature 42 °F -  
Max Temperature 59 °F 52 °F 80 °F (1999)
Min Temperature 26 °F 30 °F -13 °F (1991)
Degree Days  
Heating Degree Days 22    
Moisture  
Dew Point 28 °F    
Average Humidity 56    
Maximum Humidity 82    
Minimum Humidity 34    
Precipitation  
Precipitation 0.00 in - - ()
Sea Level Pressure  
Sea Level Pressure 30.02 in    
Wind  
Wind Speed 11 mph (South)    
Max Wind Speed 29 mph    
Max Gust Speed 37 mph    
Visibility 9 miles    
Events      
Averages and records for this station are not official NWS values.
T = Trace of Precipitation, MM = Missing Value Source: NWS Daily Summary

Daily Weather History Graph

Daily Weather History Graph

Search for Another Location

Airport or City:

Trip Planner

Search our weather history database for the weather conditions in past years. The results will help you decide how hot, cold, wet, or windy it might be!

Date:

Astronomy

Nov. 08, 2013 Rise Set
Actual Time 6:54 AM CST 5:02 PM CST
Civil Twilight 6:25 AM CST 5:31 PM CST
Nautical Twilight 5:52 AM CST 6:04 PM CST
Astronomical Twilight 5:20 AM CST 6:36 PM CST
Moon 11:50 AM CST (11/8) 10:24 PM CST (11/8)
Length of Visible Light 11h 06m
Length of Day
10h 07m
Waxing Crescent, 33% of the Moon is Illuminated
Nov 8
Waxing Crescent
Nov 9
First Quarter
Nov 17
Full
Nov 25
Last Quarter
Dec 2
New

Hourly Weather History & Observations

Time (CST) Temp. Windchill Dew Point Humidity Pressure Visibility Wind Dir Wind Speed Gust Speed Precip Events Conditions
12:15 AM 28.6 °F 21.5 °F 22.1 °F 77% 30.30 in 10.0 mi SW 6.9 mph - N/A   Clear
12:35 AM 28.4 °F 21.2 °F 22.1 °F 77% 30.30 in 10.0 mi SW 6.9 mph - N/A   Clear
12:55 AM 27.5 °F 20.2 °F 21.6 °F 78% 30.29 in 10.0 mi SW 6.9 mph - N/A   Clear
1:15 AM 28.6 °F 20.7 °F 22.1 °F 77% 30.29 in 10.0 mi SSW 8.1 mph - N/A   Clear
1:35 AM 28.0 °F 20.8 °F 21.9 °F 78% 30.28 in 10.0 mi SSW 6.9 mph - N/A   Clear
1:55 AM 26.4 °F 18.9 °F 21.2 °F 81% 30.28 in 10.0 mi South 6.9 mph - N/A   Clear
2:15 AM 26.8 °F 20.2 °F 21.9 °F 82% 30.28 in 10.0 mi SSW 5.8 mph - N/A   Clear
2:35 AM 26.2 °F 19.6 °F 21.2 °F 81% 30.28 in 10.0 mi South 5.8 mph - N/A   Clear
2:55 AM 27.5 °F 20.2 °F 21.9 °F 80% 30.26 in 10.0 mi South 6.9 mph - N/A   Clear
3:15 AM 28.0 °F 21.7 °F 21.7 °F 77% 30.26 in 10.0 mi South 5.8 mph - N/A   Clear
3:35 AM 28.2 °F 22.0 °F 22.1 °F 78% 30.26 in 10.0 mi South 5.8 mph - N/A   Clear
3:55 AM 28.0 °F 22.8 °F 22.1 °F 78% 30.25 in 10.0 mi SSE 4.6 mph - N/A   Clear
4:15 AM 27.7 °F 21.3 °F 22.1 °F 80% 30.23 in 10.0 mi SSE 5.8 mph - N/A   Clear
4:35 AM 28.2 °F 21.0 °F 22.1 °F 78% 30.23 in 10.0 mi SSE 6.9 mph - N/A   Clear
4:55 AM 28.4 °F 22.2 °F 22.5 °F 78% 30.23 in 10.0 mi SSE 5.8 mph - N/A   Clear
5:15 AM 27.9 °F 21.5 °F 22.1 °F 79% 30.23 in 10.0 mi SE 5.8 mph - N/A   Clear
5:35 AM 27.0 °F 21.6 °F 21.7 °F 81% 30.23 in 10.0 mi South 4.6 mph - N/A   Clear
5:55 AM 28.8 °F 23.7 °F 22.5 °F 77% 30.22 in 10.0 mi SSE 4.6 mph - N/A   Clear
6:15 AM 29.3 °F 21.5 °F 22.8 °F 77% 30.21 in 10.0 mi SSE 8.1 mph - N/A   Clear
6:35 AM 30.7 °F 24.1 °F 23.0 °F 73% 30.20 in 10.0 mi SSE 6.9 mph - N/A   Clear
6:55 AM 31.1 °F 23.7 °F 23.9 °F 75% 30.21 in 10.0 mi SSE 8.1 mph - N/A   Clear
7:15 AM 33.8 °F 27.0 °F 24.1 °F 68% 30.19 in 10.0 mi SSE 8.1 mph - N/A   Clear
7:35 AM 33.8 °F 25.8 °F 24.6 °F 69% 30.19 in 10.0 mi SSE 10.4 mph - N/A   Clear
7:55 AM 34.5 °F 26.2 °F 24.8 °F 68% 30.18 in 10.0 mi SSE 11.5 mph 16.1 mph N/A   Clear
8:15 AM 35.1 °F 25.9 °F 25.0 °F 67% 30.18 in 10.0 mi SSE 13.8 mph 17.3 mph N/A   Clear
8:35 AM 36.0 °F 27.1 °F 25.3 °F 65% 30.17 in 10.0 mi SSE 13.8 mph 18.4 mph N/A   Clear
8:55 AM 36.9 °F 28.2 °F 25.7 °F 64% 30.16 in 10.0 mi SSE 13.8 mph - N/A   Clear
9:15 AM 38.5 °F 29.6 °F 25.3 °F 59% 30.15 in 10.0 mi SSE 16.1 mph 21.9 mph N/A   Clear
9:35 AM 39.4 °F 31.4 °F 25.9 °F 58% 30.13 in 10.0 mi SSE 13.8 mph - N/A   Clear
9:55 AM 40.8 °F 33.3 °F 26.6 °F 57% 30.13 in 7.0 mi SSE 13.8 mph 18.4 mph N/A   Clear
10:15 AM 43.3 °F 36.5 °F 27.1 °F 53% 30.10 in 7.0 mi SSE 13.8 mph 19.6 mph N/A   Clear
10:35 AM 46.6 °F - 27.3 °F 47% 30.09 in 10.0 mi SSE 17.3 mph 24.2 mph N/A   Clear
10:55 AM 48.2 °F - 27.3 °F 44% 30.06 in 7.0 mi SSE 21.9 mph 28.8 mph N/A   Clear
11:15 AM 48.4 °F - 28.6 °F 46% 30.04 in 10.0 mi SSE 18.4 mph 28.8 mph N/A   Clear
11:35 AM 50.7 °F - 29.5 °F 44% 30.03 in 7.0 mi SSE 18.4 mph 28.8 mph N/A   Clear
11:55 AM 52.7 °F - 30.6 °F 43% 30.00 in 7.0 mi SSE 16.1 mph 28.8 mph N/A   Clear
12:15 PM 54.1 °F - 31.5 °F 42% 29.97 in 7.0 mi SSE 19.6 mph 27.6 mph N/A   Clear
12:35 PM 53.8 °F - 31.5 °F 43% 29.95 in 7.0 mi SSE 23.0 mph 29.9 mph N/A   Clear
12:55 PM 53.6 °F - 31.6 °F 43% 29.92 in 10.0 mi SSE 20.7 mph 31.1 mph N/A   Clear
1:15 PM 56.5 °F - 31.8 °F 39% 29.89 in 7.0 mi SSE 21.9 mph 34.5 mph N/A   Clear
1:35 PM 57.2 °F - 32.2 °F 39% 29.87 in 5.0 mi SSE 21.9 mph 32.2 mph N/A   Haze
1:55 PM 58.1 °F - 31.8 °F 37% 29.84 in 7.0 mi SSE 20.7 mph 34.5 mph N/A   Clear
2:15 PM 59.0 °F - 30.7 °F 34% 29.84 in 10.0 mi SSE 24.2 mph 34.5 mph N/A   Clear
2:35 PM 59.0 °F - 31.8 °F 36% 29.83 in 7.0 mi South 27.6 mph 36.8 mph N/A   Clear
2:55 PM 59.0 °F - 32.0 °F 36% 29.83 in 7.0 mi SSE 25.3 mph 36.8 mph N/A   Clear
3:15 PM 59.0 °F - 32.4 °F 37% 29.84 in 7.0 mi South 18.4 mph 28.8 mph N/A   Clear
3:35 PM 59.4 °F - 30.7 °F 34% 29.83 in 7.0 mi South 28.8 mph 34.5 mph N/A   Clear
3:55 PM 58.3 °F - 32.0 °F 37% 29.83 in 10.0 mi South 18.4 mph 27.6 mph N/A   Clear
4:15 PM 57.2 °F - 32.9 °F 40% 29.82 in 7.0 mi South 21.9 mph 31.1 mph N/A   Clear
4:35 PM 57.6 °F - 33.1 °F 40% 29.83 in 7.0 mi South 17.3 mph 26.5 mph N/A   Clear
4:55 PM 56.3 °F - 33.3 °F 42% 29.83 in 7.0 mi South 15.0 mph 21.9 mph N/A   Clear
5:15 PM 55.4 °F - 33.3 °F 43% 29.84 in 10.0 mi South 11.5 mph - N/A   Clear
5:35 PM 54.1 °F - 33.8 °F 46% 29.82 in 10.0 mi SSE 13.8 mph - N/A   Clear
5:55 PM 54.7 °F - 33.1 °F 44% 29.82 in 10.0 mi South 13.8 mph - N/A   Clear
6:15 PM 54.7 °F - 32.4 °F 43% 29.83 in 10.0 mi South 11.5 mph 17.3 mph N/A   Clear
6:35 PM 54.5 °F - 32.0 °F 42% 29.83 in 10.0 mi South 15.0 mph 19.6 mph N/A   Clear
6:55 PM 55.0 °F - 32.0 °F 42% 29.83 in 10.0 mi South 16.1 mph 20.7 mph N/A   Clear
7:15 PM 55.8 °F - 31.8 °F 40% 29.83 in 10.0 mi South 18.4 mph 26.5 mph N/A   Clear
7:35 PM 55.6 °F - 32.0 °F 41% 29.83 in 10.0 mi South 17.3 mph 24.2 mph N/A   Clear
7:55 PM 54.9 °F - 32.0 °F 42% 29.83 in 10.0 mi South 16.1 mph 21.9 mph N/A   Clear
8:15 PM 54.5 °F - 32.7 °F 44% 29.83 in 10.0 mi South 19.6 mph 24.2 mph N/A   Clear
8:35 PM 53.8 °F - 33.3 °F 46% 29.83 in 10.0 mi South 18.4 mph 24.2 mph N/A   Clear
8:55 PM 53.2 °F - 33.8 °F 48% 29.83 in 10.0 mi South 16.1 mph 23.0 mph N/A   Clear
9:15 PM 52.3 °F - 33.8 °F 49% 29.84 in 10.0 mi SSW 13.8 mph 21.9 mph N/A   Clear
9:35 PM 51.1 °F - 33.8 °F 52% 29.84 in 10.0 mi SSW 12.7 mph - N/A   Clear
9:55 PM 50.9 °F - 33.8 °F 52% 29.85 in 10.0 mi SSW 17.3 mph 20.7 mph N/A   Clear
10:15 PM 50.7 °F - 33.4 °F 52% 29.85 in 10.0 mi SW 11.5 mph - N/A   Clear
10:35 PM 50.0 °F - 33.1 °F 52% 29.86 in 10.0 mi SW 11.5 mph 16.1 mph N/A   Clear
10:55 PM 49.6 °F - 32.9 °F 53% 29.86 in 10.0 mi SW 12.7 mph - N/A   Clear
11:15 PM 49.3 °F - 32.5 °F 53% 29.87 in 10.0 mi SW 12.7 mph 17.3 mph N/A   Clear
11:35 PM 49.3 °F - 32.5 °F 53% 29.87 in 10.0 mi SW 12.7 mph - N/A   Clear
11:55 PM 48.9 °F - 32.4 °F 53% 29.88 in 10.0 mi SW 10.4 mph - N/A   Clear